Location: eljas
(40.1958°N, 6.8661°W)
Time: 00:35:51
(UTC+02:00)

ISS - All Passes

Search period start: 20 August 2017 00:00
Search period end: 30 August 2017 00:00
Orbit: 401 x 408 km, 51.6° (Epoch: 20 August)

Date Brightness Start Highest point End Pass type
(mag) Time Alt. Az. Time Alt. Az. Time Alt. Az.
20 Aug - 11:46:58 10° SSW 11:49:57 33° SE 11:52:57 10° ENE daylight
20 Aug - 13:23:29 10° W 13:26:26 30° NNW 13:29:23 10° NE daylight
20 Aug - 15:02:18 10° NNW 15:03:43 12° N 15:05:09 10° NNE daylight
20 Aug - 16:39:30 10° NNW 16:41:18 14° NNE 16:43:06 10° NE daylight
20 Aug - 18:15:17 10° NW 18:18:26 44° NNE 18:21:34 10° ESE daylight
20 Aug - 19:52:16 10° W 19:54:42 19° SW 19:57:06 10° S daylight
21 Aug - 10:55:36 10° S 10:57:52 17° SE 11:00:08 10° E daylight
21 Aug - 12:30:52 10° WSW 12:34:04 49° NNW 12:37:17 10° NE daylight
21 Aug - 14:09:15 10° NW 14:11:10 14° NNW 14:13:03 10° NNE daylight
21 Aug - 15:47:24 10° NNW 15:48:44 12° N 15:50:05 10° NNE daylight
21 Aug - 17:23:11 10° NW 17:26:04 27° NNE 17:28:55 10° E daylight
21 Aug - 18:59:33 10° WNW 19:02:36 37° SW 19:05:38 10° SSE daylight
22 Aug - 11:38:30 10° SW 11:41:47 87° SE 11:45:05 10° NE daylight
22 Aug - 13:16:14 10° WNW 13:18:38 18° NNW 13:21:01 10° NNE daylight
22 Aug - 14:55:01 10° NNW 14:56:08 11° N 14:57:14 10° NNE daylight
22 Aug - 16:31:08 10° NNW 16:33:36 19° NNE 16:36:04 10° ENE daylight
22 Aug - 18:07:08 10° NW 18:10:24 77° SW 18:13:39 10° SE daylight
23 Aug - 10:46:27 10° SSW 10:49:34 42° SE 10:52:42 10° ENE daylight
23 Aug - 12:23:20 10° W 12:26:09 26° NNW 12:28:58 10° NNE daylight
23 Aug - 14:02:13 10° NNW 14:03:30 12° N 14:04:47 10° NNE daylight
23 Aug - 15:39:05 10° NNW 15:41:04 15° NNE 15:43:03 10° NE daylight
23 Aug - 17:14:53 10° NW 17:18:07 55° NNE 17:21:19 10° ESE daylight
23 Aug - 18:52:16 10° W 18:54:17 15° SW 18:56:17 10° S daylight
24 Aug - 09:54:49 10° S 09:57:26 22° SE 10:00:01 10° E daylight
24 Aug - 11:30:36 10° WSW 11:33:44 40° NNW 11:36:52 10° NE daylight
24 Aug - 13:09:09 10° NW 13:10:54 13° NNW 13:12:37 10° NNE daylight
24 Aug - 14:46:59 10° NNW 14:48:28 12° N 14:49:58 10° NE daylight
24 Aug - 16:22:44 10° NW 16:25:44 32° NNE 16:28:42 10° E daylight
24 Aug - 17:59:16 10° WNW 18:02:10 29° SW 18:05:03 10° SSE daylight
25 Aug - 09:04:13 10° SSE 09:05:20 11° SE 09:06:27 10° ESE daylight
25 Aug - 10:38:05 10° WSW 10:41:23 75° NW 10:44:40 10° NE daylight
25 Aug - 12:16:04 10° WNW 12:18:18 17° NNW 12:20:33 10° NNE daylight
25 Aug - 13:54:41 10° NNW 13:55:50 11° N 13:56:59 10° NNE daylight
25 Aug - 15:30:38 10° NNW 15:33:16 22° NNE 15:35:52 10° ENE daylight
25 Aug - 17:06:44 10° WNW 17:09:58 60° SW 17:13:11 10° SE daylight
26 Aug - 09:45:53 10° SW 09:49:05 55° SE 09:52:19 10° ENE daylight
26 Aug - 11:23:04 10° WNW 11:25:45 23° NNW 11:28:27 10° NNE daylight
26 Aug - 13:01:58 10° NNW 13:03:10 11° N 13:04:21 10° NNE daylight
26 Aug - 14:38:33 10° NNW 14:40:43 16° NNE 14:42:52 10° ENE daylight
26 Aug - 16:14:24 10° NW 16:17:40 69° NE 16:20:55 10° ESE daylight
26 Aug - 17:52:20 10° WSW 17:53:44 12° SW 17:55:08 10° SSW daylight
27 Aug - 08:54:02 10° SSW 08:56:52 27° SE 08:59:44 10° ENE daylight
27 Aug - 10:30:14 10° W 10:33:16 34° NNW 10:36:20 10° NE daylight
27 Aug - 12:08:57 10° NW 12:10:30 13° N 12:12:04 10° NNE daylight
27 Aug - 13:46:26 10° NNW 13:48:05 13° N 13:49:45 10° NE daylight
27 Aug - 15:22:12 10° NW 15:25:17 38° NNE 15:28:21 10° E daylight
27 Aug - 16:58:56 10° WNW 17:01:37 23° SW 17:04:17 10° S daylight
28 Aug - 08:02:52 10° SSE 08:04:44 14° SE 08:06:36 10° E daylight
28 Aug - 09:37:37 10° WSW 09:40:51 60° NW 09:44:07 10° NE daylight
28 Aug - 11:15:48 10° NW 11:17:52 15° NNW 11:19:56 10° NNE daylight
28 Aug - 12:54:10 10° NNW 12:55:25 12° N 12:56:41 10° NNE daylight
28 Aug - 14:30:01 10° NNW 14:32:47 24° NNE 14:35:33 10° E daylight
28 Aug - 16:06:14 10° WNW 16:09:24 46° SW 16:12:32 10° SSE daylight
29 Aug - 08:45:14 10° SW 08:48:30 71° SE 08:51:47 10° ENE daylight
29 Aug - 10:22:44 10° WNW 10:25:16 20° NNW 10:27:49 10° NNE daylight
29 Aug - 12:01:35 10° NNW 12:02:44 11° N 12:03:51 10° NNE daylight
29 Aug - 13:37:54 10° NNW 13:40:14 18° NNE 13:42:33 10° ENE daylight
29 Aug - 15:13:49 10° NW 15:17:06 86° NE 15:20:21 10° SE daylight
